EW4696 Weather Reports


Display with metric or nautical units.
time (UTC)temp
F
wind
direction
speed
MPH
gust
MPH
rain 1hr
in
rain 24hr
in
rain mn
in
humidity
%
barometer
mb
20260503232005 76 105 1.0 5.0 0.00 0.00 0.00 45 1018.1
20260503231505 76 97 1.0 7.0 0.00 0.00 0.00 44 1018.1
20260503231004 76 0 0.0 7.0 0.00 0.00 0.00 44 1018.0
20260503230504 76 0 0.0 5.0 0.00 0.00 0.00 43 1017.8
20260503225505 77 99 1.0 6.0 0.00 0.00 0.00 41 1017.9
20260503225004 78 100 1.0 6.0 0.00 0.00 0.00 41 1018.0
20260503223505 78 187 1.0 5.0 0.00 0.00 0.00 39 1018.2
20260503223004 79 168 1.0 4.0 0.00 0.00 0.00 40 1018.5
20260503222005 79 190 1.0 6.0 0.00 0.00 0.00 38 1018.4
20260503221504 79 215 1.0 6.0 0.00 0.00 0.00 38 1018.6
20260503221004 79 0 0.0 4.0 0.00 0.00 0.00 39 1018.7
20260503220504 79 201 1.0 8.0 0.00 0.00 0.00 38 1018.6
20260503220005 79 189 2.0 8.0 0.00 0.00 0.00 37 1018.6
20260503215505 80 170 1.0 8.0 0.00 0.00 0.00 37 1018.6
20260503215004 80 170 1.0 8.0 0.00 0.00 0.00 37 1018.6
20260503214504 79 0 0.0 3.0 0.00 0.00 0.00 41 1018.7
20260503214005 79 179 1.0 4.0 0.00 0.00 0.00 39 1018.9
20260503213504 80 177 1.0 4.0 0.00 0.00 0.00 38 1019.1
20260503213004 80 186 1.0 4.0 0.00 0.00 0.00 39 1019.2
20260503212005 79 94 1.0 8.0 0.00 0.00 0.00 40 1019.1
20260503211504 78 113 1.0 4.0 0.00 0.00 0.00 40 1019.4
20260503211004 78 96 1.0 6.0 0.00 0.00 0.00 39 1019.6
20260503210505 79 107 2.0 8.0 0.00 0.00 0.00 39 1019.7
20260503210005 80 158 2.0 8.0 0.00 0.00 0.00 37 1019.7
20260503205504 80 183 2.0 8.0 0.00 0.00 0.00 39 1019.9
20260503205005 80 134 1.0 8.0 0.00 0.00 0.00 40 1019.9
20260503204504 80 109 1.0 5.0 0.00 0.00 0.00 40 1019.9
20260503204004 80 101 1.0 5.0 0.00 0.00 0.00 40 1020.0
20260503203005 79 166 2.0 5.0 0.00 0.00 0.00 41 1020.2
20260503202504 80 174 1.0 5.0 0.00 0.00 0.00 41 1020.3
20260503202004 80 122 1.0 3.0 0.00 0.00 0.00 42 1020.5
20260503201005 79 179 2.0 8.0 0.00 0.00 0.00 39 1020.5
20260503200504 79 171 2.0 5.0 0.00 0.00 0.00 40 1020.6
20260503200004 79 149 1.0 5.0 0.00 0.00 0.00 40 1020.6
20260503195505 79 163 1.0 4.0 0.00 0.00 0.00 37 1020.8
20260503195005 79 190 2.0 7.0 0.00 0.00 0.00 40 1020.9
20260503194004 79 134 1.0 7.0 0.00 0.00 0.00 45 1020.9
20260503193505 79 149 1.0 7.0 0.00 0.00 0.00 43 1020.9
20260503193004 79 185 1.0 4.0 0.00 0.00 0.00 41 1021.1
20260503192504 79 212 1.0 7.0 0.00 0.00 0.00 38 1021.1
20260503192005 79 225 1.0 7.0 0.00 0.00 0.00 39 1021.2
20260503191004 79 220 1.0 7.0 0.00 0.00 0.00 43 1021.4
20260503190504 79 210 1.0 7.0 0.00 0.00 0.00 44 1021.5
20260503190005 79 205 2.0 6.0 0.00 0.00 0.00 41 1021.6
20260503185504 79 209 1.0 7.0 0.00 0.00 0.00 43 1021.6
20260503185005 79 198 1.0 7.0 0.00 0.00 0.00 41 1021.7
20260503184504 78 160 1.0 6.0 0.00 0.00 0.00 48 1021.8
20260503184004 78 152 1.0 6.0 0.00 0.00 0.00 45 1021.9
20260503183505 78 133 2.0 7.0 0.00 0.00 0.00 43 1021.9
20260503183004 78 135 2.0 7.0 0.00 0.00 0.00 42 1022.0
20260503182505 78 133 1.0 7.0 0.00 0.00 0.00 42 1022.2
20260503182005 78 160 1.0 6.0 0.00 0.00 0.00 42 1022.4
20260503181505 78 157 1.0 6.0 0.00 0.00 0.00 44 1022.3
20260503181005 78 108 1.0 3.0 0.00 0.00 0.00 45 1022.2
20260503180504 78 109 1.0 4.0 0.00 0.00 0.00 43 1022.6
20260503180005 78 192 1.0 6.0 0.00 0.00 0.00 46 1022.7
20260503175504 78 189 1.0 6.0 0.00 0.00 0.00 45 1022.7
20260503175004 78 124 1.0 5.0 0.00 0.00 0.00 46 1022.8
20260503174504 78 148 1.0 5.0 0.00 0.00 0.00 46 1022.9
20260503174005 78 185 1.0 5.0 0.00 0.00 0.00 45 1023.0
20260503173504 78 194 1.0 6.0 0.00 0.00 0.00 47 1023.0
20260503173004 78 193 1.0 6.0 0.00 0.00 0.00 45 1023.0
20260503172504 77 196 1.0 4.0 0.00 0.00 0.00 46 1023.0
20260503172005 77 188 1.0 5.0 0.00 0.00 0.00 43 1023.1
20260503171505 77 167 1.0 5.0 0.00 0.00 0.00 43 1023.2
20260503170504 77 150 1.0 6.0 0.00 0.00 0.00 43 1023.2
20260503131004 59 0 0.0 0.0 0.00 0.00 0.00 83 1023.4
20260503110505 54 0 0.0 0.0 0.00 0.00 0.00 87 1022.4
20260503090504 54 0 0.0 0.0 0.00 0.00 0.00 88 1021.8
20260503081505 55 0 0.0 0.0 0.00 0.00 0.00 86 1021.9
20260503072504 56 0 0.0 0.0 0.00 0.00 0.00 84 1022.1
20260503072004 56 0 0.0 0.0 0.00 0.00 0.00 84 1022.2
20260503071505 56 0 0.0 0.0 0.00 0.00 0.00 84 1022.2
20260503071005 56 0 0.0 0.0 0.00 0.00 0.00 84 1022.2
20260503055005 57 0 0.0 0.0 0.00 0.00 0.00 82 1022.3
20260503054504 57 0 0.0 0.0 0.00 0.00 0.00 81 1022.4
20260503054004 58 0 0.0 0.0 0.00 0.00 0.00 81 1022.4
20260503053505 58 0 0.0 0.0 0.00 0.00 0.00 82 1022.4
20260503053004 58 0 0.0 0.0 0.00 0.00 0.00 81 1022.4
20260503052504 58 0 0.0 0.0 0.00 0.00 0.00 81 1022.6
20260503052004 58 0 0.0 0.0 0.00 0.00 0.00 81 1022.6
20260503051505 58 0 0.0 0.0 0.00 0.00 0.00 80 1022.5
20260503051004 58 0 0.0 0.0 0.00 0.00 0.00 80 1022.4
20260503045504 58 0 0.0 0.0 0.00 0.00 0.00 80 1022.3
20260503044504 58 0 0.0 0.0 0.00 0.00 0.00 80 1022.4
20260503044004 58 0 0.0 0.0 0.00 0.00 0.00 80 1022.4
20260503043504 58 0 0.0 0.0 0.00 0.00 0.00 79 1022.4
20260503043004 59 0 0.0 0.0 0.00 0.00 0.00 79 1022.4
20260503042504 59 0 0.0 0.0 0.00 0.00 0.00 78 1022.4
20260503042004 59 0 0.0 0.0 0.00 0.00 0.00 78 1022.3
20260503041004 59 0 0.0 0.0 0.00 0.00 0.00 77 1022.2
20260503040505 59 0 0.0 0.0 0.00 0.00 0.00 77 1022.2
20260503040004 59 0 0.0 0.0 0.00 0.00 0.00 76 1022.2
20260503035504 60 0 0.0 0.0 0.00 0.00 0.00 76 1022.3
20260503034504 60 0 0.0 0.0 0.00 0.00 0.00 75 1022.1
20260503034004 60 0 0.0 0.0 0.00 0.00 0.00 75 1022.1
20260503033504 60 0 0.0 0.0 0.00 0.00 0.00 74 1022.0
20260503033004 60 0 0.0 0.0 0.00 0.00 0.00 74 1022.0
20260503032504 60 0 0.0 0.0 0.00 0.00 0.00 74 1022.0
20260503032004 60 0 0.0 0.0 0.00 0.00 0.00 73 1022.0
20260503031504 61 0 0.0 0.0 0.00 0.00 0.00 73 1021.9
20260503030504 61 0 0.0 0.0 0.00 0.00 0.00 72 1021.9
20260503030004 61 0 0.0 0.0 0.00 0.00 0.00 71 1021.9
20260503025504 62 0 0.0 0.0 0.00 0.00 0.00 70 1021.9
20260503024505 62 0 0.0 0.0 0.00 0.00 0.00 69 1021.8
20260503024004 62 0 0.0 0.0 0.00 0.00 0.00 68 1021.7
20260503023504 63 0 0.0 0.0 0.00 0.00 0.00 67 1021.5
20260503023004 63 0 0.0 0.0 0.00 0.00 0.00 66 1021.3
20260503022505 63 0 0.0 0.0 0.00 0.00 0.00 65 1021.2
20260503022004 64 0 0.0 0.0 0.00 0.00 0.00 64 1021.3
20260503021504 64 0 0.0 0.0 0.00 0.00 0.00 64 1021.1
20260503021004 64 0 0.0 0.0 0.00 0.00 0.00 62 1021.1
20260503020505 65 0 0.0 0.0 0.00 0.00 0.00 61 1021.1
20260503020004 65 0 0.0 0.0 0.00 0.00 0.00 60 1021.0
20260503015504 66 0 0.0 0.0 0.00 0.00 0.00 60 1021.1
20260503015004 66 0 0.0 0.0 0.00 0.00 0.00 59 1021.0
20260503014504 66 0 0.0 0.0 0.00 0.00 0.00 58 1021.1
20260503014004 67 0 0.0 0.0 0.00 0.00 0.00 57 1021.1
20260503013504 67 0 0.0 0.0 0.00 0.00 0.00 57 1021.1
20260503013004 67 0 0.0 0.0 0.00 0.00 0.00 56 1021.0
20260503012504 68 0 0.0 0.0 0.00 0.00 0.00 55 1021.0
20260503012004 68 0 0.0 0.0 0.00 0.00 0.00 55 1020.8
20260503011504 68 0 0.0 0.0 0.00 0.00 0.00 55 1020.7
20260503011004 69 0 0.0 0.0 0.00 0.00 0.00 53 1020.7
20260503010505 69 0 0.0 0.0 0.00 0.01 0.00 53 1020.8
20260503010004 69 0 0.0 0.0 0.00 0.01 0.00 52 1020.7
20260503005005 70 0 0.0 3.0 0.00 0.01 0.00 51 1020.7
20260503004504 70 0 0.0 3.0 0.00 0.01 0.00 51 1020.6
20260503003504 71 0 0.0 1.0 0.00 0.01 0.00 49 1020.5
20260503003005 71 0 0.0 2.0 0.00 0.01 0.00 49 1020.6
20260503002504 71 0 0.0 2.0 0.00 0.01 0.00 48 1020.6
20260503002004 72 0 0.0 2.0 0.00 0.01 0.00 47 1020.6
20260503001504 72 0 0.0 3.0 0.00 0.01 0.00 46 1020.6
20260503001004 72 0 0.0 3.0 0.00 0.01 0.00 47 1020.6
20260503000504 72 0 0.0 2.0 0.00 0.01 0.00 47 1020.6
20260503000004 72 0 0.0 2.0 0.00 0.01 0.00 47 1020.5
20260502235504 72 0 0.0 2.0 0.00 0.01 0.00 47 1020.4
20260502235004 72 66 1.0 3.0 0.00 0.01 0.00 47 1020.4
20260502234505 72 66 1.0 3.0 0.00 0.01 0.00 46 1020.5
20260502234004 73 0 0.0 2.0 0.00 0.01 0.00 46 1020.4
20260502233504 73 0 0.0 3.0 0.00 0.01 0.00 46 1020.3
20260502233004 73 0 0.0 3.0 0.00 0.01 0.00 45 1020.4
20260502232505 73 0 0.0 2.0 0.00 0.01 0.00 45 1020.4